Location: Christian Reformed Church
(43.0975°N, 93.8113°W)
Time: 23:41:16
(UTC+00:00)

Okean 1-7 Rocket - Visible Passes

Search period start: 14 March 2026 00:00
Search period end: 24 March 2026 00:00
Orbit: 611 x 642 km, 82.5° (Epoch: 14 March)

Date Brightness Start Highest point End Pass type
(mag) Time Alt. Az. Time Alt. Az. Time Alt. Az.
14 Mar 4.3 01:14:06 10° SSW 01:18:34 59° W 01:23:04 10° N visible
14 Mar 5.3 11:22:56 10° N 11:27:07 38° ENE 11:31:13 10° SE visible
15 Mar 5.7 01:34:19 10° SW 01:38:21 31° WNW 01:42:24 10° NNW visible
15 Mar 3.8 11:42:23 10° N 11:46:51 75° E 11:51:14 10° SSE visible
16 Mar 6.7 01:55:16 10° WSW 01:58:16 17° WNW 02:01:16 10° NNW visible
16 Mar 6.9 10:25:37 10° NE 10:28:03 14° ENE 10:30:29 10° ESE visible
17 Mar 5.9 10:44:15 10° NNE 10:48:01 26° ENE 10:51:42 10° SE visible
18 Mar 5.0 00:54:57 10° SSW 00:59:17 45° WNW 01:03:38 10° N visible
18 Mar 4.6 11:03:30 10° N 11:07:49 49° ENE 11:12:05 10° SSE visible
19 Mar 6.3 01:15:25 10° SW 01:19:07 24° WNW 01:22:49 10° NNW visible
19 Mar 3.5 11:23:04 10° N 11:27:30 83° W 11:31:53 10° S visible
20 Mar 7.0 01:36:51 10° W 01:39:04 13° WNW 01:41:18 10° NW visible
20 Mar 6.4 10:05:46 10° NNE 10:08:51 18° ENE 10:11:55 10° ESE visible
20 Mar 4.0 11:42:55 10° NNW 11:47:04 41° W 11:51:10 10° SSW visible
21 Mar 5.3 10:24:42 10° N 10:28:44 33° ENE 10:32:43 10° SE visible
22 Mar 3.9 10:44:05 10° N 10:48:29 66° E 10:52:50 10° SSE visible
23 Mar 6.7 00:56:39 10° WSW 00:59:53 19° WNW 01:03:07 10° NNW visible
23 Mar 6.8 09:27:40 10° NE 09:29:39 13° ENE 09:31:36 10° E visible
23 Mar 3.5 11:03:46 10° NNW 11:08:07 62° W 11:12:25 10° S visible
